Location: Chuathbaluk
(61.5726°N, 159.2454°W)
Time: 23:16:25
(UTC+00:00)

XW-2D - Visible Passes

Search period start: 23 January 2021 00:00
Search period end: 02 February 2021 00:00
Orbit: 506 x 525 km, 97.5° (Epoch: 23 January)

Date Brightness Start Highest point End Pass type
(mag) Time Alt. Az. Time Alt. Az. Time Alt. Az.
23 Jan ? 03:47:28 10° S 03:51:08 48° W 03:54:50 10° NNW visible
23 Jan ? 15:10:10 10° ENE 15:11:16 11° E 15:12:22 10° E visible
23 Jan ? 16:42:23 10° NNE 16:46:11 57° ESE 16:49:57 10° S visible
23 Jan ? 18:16:46 10° N 18:20:03 27° WNW 18:23:20 10° WSW visible
24 Jan ? 03:32:31 10° S 03:36:16 65° WSW 03:40:04 10° NNW visible
24 Jan ? 05:09:32 10° WSW 05:11:07 12° W 05:12:42 10° WNW visible
24 Jan ? 16:27:37 10° NNE 16:31:18 43° E 16:34:58 10° S visible
24 Jan ? 18:01:50 10° N 18:05:20 34° WNW 18:08:49 10° SW visible
25 Jan ? 03:17:38 10° SSE 03:21:25 86° WSW 03:25:15 10° NNW visible
25 Jan ? 04:53:44 10° SW 04:56:06 16° W 04:58:28 10° NW visible
25 Jan ? 16:12:53 10° NNE 16:16:23 33° E 16:19:53 10° SSE visible
25 Jan ? 17:46:55 10° N 17:50:35 44° WNW 17:54:14 10° SW visible
26 Jan ? 04:38:14 10° SW 04:41:06 20° W 04:43:59 10° NW visible
26 Jan ? 15:58:12 10° NE 16:01:27 25° E 16:04:41 10° SSE visible
26 Jan ? 17:32:02 10° N 17:35:48 57° WNW 17:39:33 10° SW visible
27 Jan ? 04:22:55 10° SSW 04:26:08 26° W 04:29:23 10° NW visible
27 Jan ? 15:43:36 10° NE 15:46:29 20° E 15:49:22 10° SE visible
27 Jan ? 17:17:10 10° NNE 17:21:00 75° WNW 17:24:50 10° SSW visible
28 Jan ? 04:07:44 10° SSW 04:11:12 33° W 04:14:42 10° NNW visible
28 Jan ? 15:29:07 10° NE 15:31:30 16° E 15:33:52 10° SE visible
28 Jan ? 17:02:18 10° NNE 17:06:11 84° ESE 17:10:01 10° SSW visible
29 Jan ? 03:52:38 10° S 03:56:17 44° W 03:59:58 10° NNW visible
29 Jan ? 15:14:54 10° ENE 15:16:28 12° E 15:18:02 10° ESE visible
29 Jan ? 16:47:29 10° NNE 16:51:19 63° ESE 16:55:08 10° S visible
30 Jan ? 03:37:39 10° S 03:41:23 59° WSW 03:45:11 10° NNW visible
30 Jan ? 05:15:06 10° W 05:16:18 11° W 05:17:30 10° WNW visible
30 Jan ? 16:32:42 10° NNE 16:36:27 47° E 16:40:09 10° S visible
30 Jan ? 18:06:59 10° N 18:10:25 32° WNW 18:13:51 10° WSW visible
31 Jan ? 03:22:44 10° SSE 03:26:32 79° WSW 03:30:23 10° NNW visible
31 Jan ? 04:59:05 10° WSW 05:01:16 15° W 05:03:27 10° NW visible
31 Jan ? 16:17:57 10° NNE 16:21:32 36° E 16:25:06 10° SSE visible
31 Jan ? 17:52:03 10° N 17:55:40 40° WNW 17:59:16 10° SW visible
01 Feb ? 04:43:31 10° SW 04:46:15 19° W 04:49:01 10° NW visible
01 Feb ? 16:03:15 10° NNE 16:06:36 28° E 16:09:56 10° SSE visible
01 Feb ? 17:37:08 10° N 17:40:54 52° WNW 17:44:37 10° SW visible
